Vorticity
7 10 4 2 8 8 8 26 1 6 5 -2 4 5 -11 -1 4 -8 5 -1 2 3 10 5 -2 -2 2 4 16 11 5 5 1 2 1 3 7 12 9 7 11 6 2 3 2 6 9 9 13
6 7 2 -0 6 8 10 -7 20 -2 1 4 9 4 3 -2 11 -1 6 3 2 5 8 1 4 1 13 12 2 3 12 8 7 3 1 1 4 8 9 10 11 14 9 7 7 7 4 10 11
6 5 3 -1 4 12 12 5 10 9 14 -6 5 3 -0 2 7 -3 7 2 0 7 1 1 7 7 6 10 8 8 6 11 12 12 6 3 1 5 10 10 14 -13 69 11 10 9 3 9 8
6 7 5 2 3 10 22 -26 17 -8 5 5 4 5 1 -0 6 -2 3 4 -0 -0 -5 -2 8 5 2 3 2 2 3 4 2 7 10 6 3 2 8 4 10 12 2 -14 25 17 5 11 9
5 7 6 4 2 5 23 -6 12 4 -3 -4 3 8 2 2 -1 5 3 1 3 5 1 -1 3 4 3 5 1 6 6 5 3 4 7 8 7 5 3 6 5 14 9 -12 6 14 20 12 10
4 4 5 5 4 3 16 -5 6 11 5 4 -1 4 4 -1 2 -1 3 2 -0 3 2 5 -6 4 6 3 2 8 8 5 7 9 7 6 9 6 7 6 6 8 12 6 28 4 0 3 6
5 6 6 5 5 5 -2 12 7 7 7 9 2 3 4 4 3 0 -0 4 2 1 3 1 1 1 6 2 2 5 5 5 4 11 7 10 10 9 6 5 4 9 11 8 3 -4 44 7 1
4 5 5 5 3 3 4 -17 4 11 8 7 12 3 4 1 1 8 4 0 4 3 3 1 3 -1 3 3 2 4 4 6 5 9 2 11 12 10 8 7 5 8 11 12 6 25 6 1 3
6 6 6 4 5 2 6 9 4 4 -3 4 5 1 5 2 3 -0 4 3 4 4 3 5 4 -2 2 5 -0 4 5 2 4 10 1 11 14 8 10 9 2 10 11 14 9 18 15 1 14
7 7 3 5 8 5 2 8 5 7 5 7 7 4 0 7 5 2 2 3 5 3 4 2 9 1 4 6 1 2 2 2 2 7 4 13 13 8 11 8 6 6 14 12 13 8 19 20 7
4 5 7 4 6 10 -2 -1 -3 3 5 4 8 9 1 2 4 3 5 2 4 2 5 5 6 1 4 5 1 2 3 1 4 3 8 16 10 8 10 8 2 8 16 14 6 10 18 5 -5
4 8 6 5 5 5 5 9 -1 8 4 9 8 4 5 4 3 1 7 4 4 6 1 3 6 2 4 4 2 2 1 1 4 4 7 17 8 10 10 8 3 9 10 20 8 10 14 -2 -2
8 5 5 6 3 2 8 7 6 9 9 9 8 7 6 7 9 9 -2 1 1 6 11 5 4 7 3 5 4 4 1 1 2 5 8 19 6 9 12 7 5 14 19 15 8 11 23 7 17
7 7 6 5 4 5 2 4 5 3 10 11 9 9 9 8 7 7 8 7 6 8 6 6 8 9 3 5 4 4 1 -0 3 5 9 13 5 7 10 6 5 8 18 12 5 13 3 13 25
9 8 9 5 7 9 8 3 1 -2 7 7 10 10 7 10 9 6 5 7 7 9 7 7 12 9 5 8 3 3 0 1 3 3 8 18 5 8 9 4 6 11 15 14 -31 14 8 8 -4
14 13 13 8 7 6 11 16 12 6 7 6 7 8 8 8 8 7 7 7 7 7 7 8 9 11 8 9 4 5 1 2 6 4 7 18 5 7 11 3 4 9 15 10 -5 29 3 8 5
11 8 9 14 13 15 5 37 8 17 15 18 8 3 7 10 6 8 7 7 6 7 7 9 17 16 5 7 4 8 0 5 3 4 13 13 5 8 10 6 4 5 13 20 3 -5 40 11 11
17 16 12 12 7 23 40 -16 2 14 12 17 17 10 4 5 8 8 9 9 6 6 9 9 7 14 13 10 2 10 0 6 4 2 16 15 5 7 12 8 6 -0 10 12 9 7 4 27 17
14 12 13 11 9 -2 5 -20 8 -14 27 17 3 17 10 12 10 7 9 7 6 7 10 10 13 8 7 2 0 9 4 5 3 3 12 23 8 4 11 6 6 3 5 23 -5 14 -5 21 -29
9 7 11 17 13 10 8 3 14 28 -15 -12 -8 29 10 8 8 16 7 3 3 8 8 9 9 8 7 7 13 6 5 5 2 3 16 21 6 2 10 5 6 8 4 12 6 22 -6 41 10
14 12 14 13 4 4 8 11 2 9 6 21 16 -25 12 26 21 10 5 4 9 4 16 6 7 4 4 5 5 3 6 3 6 4 19 11 5 7 9 7 5 3 8 8 4 26 -10 0 33
3 21 11 8 13 7 14 29 9 12 18 19 26 12 12 -7 11 1 9 15 10 6 9 5 7 -8 7 5 11 8 4 6 5 2 23 7 6 6 9 8 4 4 9 8 -1 28 -5 13 20
4 1 7 12 7 6 -1 13 12 14 8 11 25 65 1 16 6 6 13 11 12 7 7 8 8 16 18 7 12 5 4 7 6 4 19 19 8 9 5 9 4 5 4 5 8 36 -18 41 21
21 14 14 10 6 -3 24 10 15 14 23 19 37 6 7 -14 10 28 12 4 9 -3 8 12 12 11 10 8 12 3 3 7 7 -0 22 13 8 9 7 8 4 2 1 2 7 26 -10 55 -3
13 26 28 17 20 2 6 8 13 18 56 13 8 16 10 9 25 -1 0 -2 2 1 3 6 8 12 9 8 8 -1 2 9 7 4 28 7 6 6 8 7 5 4 -0 10 20 30 44 42 -9
8 -24 7 18 17 40 19 -5 26 24 25 10 17 8 -7 3 26 6 13 23 13 8 7 6 7 12 7 12 2 9 5 11 5 4 23 8 7 7 6 7 6 5 2 12 11 27 33 36 13
24 11 -21 10 -2 12 -0 9 17 28 20 11 8 -2 6 10 18 14 8 15 4 6 14 8 11 12 6 4 5 5 6 10 4 3 24 6 6 10 3 7 6 2 4 15 3 14 69 21 25
0 -13 16 4 -8 5 25 19 -1 25 17 17 23 7 -1 15 -21 -4 -15 3 6 11 13 9 12 24 20 -1 -2 14 4 12 6 5 20 7 11 13 2 6 6 2 8 12 8 -1 63 30 0
-10 49 15 15 6 11 5 17 8 15 6 13 19 -1 -0 -12 -21 10 20 11 14 17 9 11 9 7 11 14 13 10 7 11 5 5 14 5 5 11 3 7 5 2 13 10 20 15 16 25 28
41 -19 50 -16 16 11 20 -3 17 17 -17 12 32 34 24 24 5 12 12 12 12 11 21 21 21 26 9 -6 -8 8 6 9 9 4 11 11 3 10 7 7 5 0 15 8 14 13 4 49 23
Height
5837 5836 5836 5835 5838 5837 5838 5843 5843 5845 5840 5839 5841 5841 5840 5839 5839 5839 5838 5838 5839 5839 5839 5838 5838 5837 5835 5834 5833 5832 5831 5830 5829 5827 5826 5824 5822 5820 5818 5816 5816 5816 5814 5813 5812 5814 5814 5814 5816
5833 5832 5832 5832 5834 5832 5837 5841 5845 5839 5836 5837 5839 5838 5838 5837 5837 5836 5837 5836 5836 5836 5836 5836 5835 5833 5832 5831 5830 5828 5828 5826 5825 5824 5823 5821 5819 5816 5815 5814 5814 5812 5806 5806 5805 5808 5809 5811 5814
5829 5828 5828 5827 5829 5831 5835 5842 5841 5832 5833 5835 5835 5835 5835 5833 5834 5834 5836 5834 5834 5834 5833 5833 5831 5830 5829 5828 5828 5826 5825 5824 5822 5820 5819 5818 5815 5812 5811 5811 5812 5807 5796 5801 5799 5796 5802 5806 5809
5824 5824 5824 5822 5826 5828 5831 5835 5832 5826 5828 5831 5831 5831 5832 5828 5830 5830 5834 5831 5832 5832 5831 5830 5829 5828 5827 5826 5825 5824 5822 5821 5819 5817 5816 5815 5812 5809 5807 5808 5808 5805 5802 5803 5792 5792 5793 5800 5803
5818 5819 5818 5818 5821 5824 5825 5827 5823 5822 5825 5826 5828 5828 5827 5823 5824 5828 5829 5827 5827 5828 5827 5827 5826 5825 5825 5824 5823 5822 5820 5818 5816 5815 5813 5811 5809 5805 5802 5804 5805 5805 5805 5801 5802 5798 5796 5798 5799
5811 5812 5812 5813 5817 5819 5820 5822 5816 5817 5821 5819 5823 5824 5823 5819 5821 5821 5824 5823 5821 5822 5821 5822 5822 5822 5822 5822 5820 5818 5817 5814 5813 5811 5810 5807 5806 5802 5799 5800 5799 5797 5798 5797 5795 5796 5796 5797 5798
5806 5806 5805 5807 5810 5813 5818 5816 5813 5812 5813 5812 5816 5818 5819 5815 5812 5817 5819 5819 5817 5818 5817 5817 5817 5817 5817 5817 5817 5815 5812 5810 5809 5808 5805 5803 5802 5800 5797 5796 5796 5793 5792 5793 5792 5791 5792 5795 5796
5798 5799 5797 5800 5803 5806 5810 5812 5802 5804 5808 5809 5804 5811 5814 5806 5807 5813 5812 5812 5813 5812 5813 5812 5813 5813 5812 5812 5812 5811 5809 5807 5805 5803 5801 5799 5798 5795 5794 5793 5793 5792 5790 5788 5789 5787 5788 5790 5790
5791 5788 5788 5794 5797 5801 5803 5804 5798 5795 5800 5802 5798 5802 5804 5801 5804 5807 5805 5805 5808 5807 5807 5808 5809 5808 5808 5807 5807 5806 5805 5803 5801 5799 5797 5794 5793 5791 5789 5789 5789 5787 5784 5784 5783 5783 5784 5786 5787
5781 5781 5784 5787 5789 5790 5792 5795 5788 5790 5791 5796 5791 5792 5799 5796 5798 5796 5798 5799 5800 5802 5802 5802 5803 5803 5803 5803 5802 5802 5800 5800 5797 5794 5792 5790 5788 5786 5785 5784 5782 5783 5782 5781 5780 5780 5779 5782 5785
5773 5772 5776 5776 5777 5778 5778 5779 5781 5778 5781 5784 5785 5782 5786 5791 5788 5789 5791 5792 5791 5794 5795 5797 5797 5797 5797 5797 5797 5796 5795 5795 5792 5789 5787 5785 5783 5782 5781 5781 5779 5777 5778 5776 5777 5775 5776 5778 5780
5757 5760 5761 5766 5768 5767 5766 5768 5769 5771 5775 5774 5775 5777 5776 5776 5780 5783 5786 5785 5785 5783 5788 5791 5791 5791 5791 5791 5791 5791 5790 5789 5787 5785 5782 5779 5779 5778 5777 5777 5776 5772 5771 5772 5773 5772 5772 5774 5777
5746 5749 5750 5751 5753 5756 5755 5755 5759 5765 5763 5766 5766 5767 5768 5769 5771 5770 5777 5776 5778 5778 5777 5780 5784 5786 5785 5785 5786 5785 5784 5784 5782 5780 5778 5775 5775 5774 5772 5771 5771 5768 5767 5765 5765 5767 5769 5771 5774
5734 5735 5737 5739 5740 5741 5743 5746 5747 5757 5756 5757 5757 5758 5760 5761 5761 5763 5764 5768 5769 5770 5771 5769 5774 5778 5778 5779 5780 5779 5779 5778 5777 5775 5773 5770 5770 5770 5768 5767 5766 5764 5764 5763 5764 5766 5767 5769 5771
5723 5722 5724 5727 5728 5729 5728 5734 5737 5745 5745 5745 5748 5748 5748 5752 5753 5753 5755 5757 5758 5762 5761 5761 5763 5768 5772 5772 5772 5773 5773 5772 5771 5769 5768 5767 5765 5766 5765 5763 5763 5761 5761 5760 5760 5761 5763 5766 5768
5711 5708 5710 5720 5715 5720 5714 5721 5728 5728 5730 5735 5736 5738 5738 5740 5743 5743 5746 5746 5750 5752 5751 5751 5756 5760 5762 5765 5765 5766 5766 5766 5767 5764 5761 5761 5761 5761 5761 5760 5758 5757 5758 5757 5756 5756 5758 5761 5764
5701 5695 5698 5705 5706 5706 5701 5704 5711 5714 5715 5720 5724 5724 5727 5730 5730 5735 5736 5737 5739 5740 5739 5744 5747 5748 5755 5756 5757 5759 5759 5759 5759 5758 5757 5755 5755 5756 5756 5755 5754 5753 5754 5754 5753 5751 5752 5755 5759
5691 5684 5690 5690 5697 5692 5686 5685 5694 5697 5702 5706 5710 5712 5713 5718 5720 5723 5726 5728 5726 5728 5735 5737 5738 5740 5742 5747 5750 5753 5752 5753 5752 5750 5750 5749 5749 5751 5750 5751 5749 5749 5749 5749 5749 5749 5750 5752 5754
5675 5672 5674 5681 5681 5675 5667 5675 5682 5685 5691 5694 5696 5696 5703 5706 5709 5712 5713 5717 5717 5720 5726 5727 5730 5732 5734 5736 5741 5744 5745 5745 5744 5744 5742 5743 5743 5744 5744 5745 5745 5743 5745 5744 5743 5745 5744 5749 5751
5663 5661 5664 5666 5666 5663 5656 5663 5673 5673 5675 5679 5682 5685 5688 5693 5696 5699 5701 5702 5709 5715 5715 5718 5722 5723 5726 5729 5731 5734 5736 5738 5737 5736 5735 5735 5738 5738 5739 5739 5740 5739 5739 5740 5739 5739 5740 5743 5746
5652 5653 5652 5650 5653 5649 5646 5653 5658 5665 5663 5667 5669 5670 5675 5681 5685 5686 5685 5691 5699 5703 5706 5709 5712 5715 5719 5722 5724 5727 5729 5730 5730 5729 5728 5728 5730 5732 5733 5732 5734 5733 5733 5734 5734 5732 5734 5735 5737
5641 5643 5640 5639 5639 5636 5641 5636 5647 5653 5653 5655 5659 5661 5664 5669 5672 5671 5676 5684 5686 5692 5696 5699 5702 5705 5710 5713 5714 5720 5719 5721 5722 5721 5720 5720 5723 5726 5726 5726 5727 5727 5727 5728 5728 5726 5727 5727 5730
5632 5629 5628 5627 5626 5624 5630 5627 5642 5643 5642 5644 5646 5649 5654 5654 5660 5661 5667 5673 5677 5681 5685 5688 5692 5694 5699 5704 5705 5710 5710 5712 5713 5712 5712 5713 5716 5718 5719 5719 5720 5720 5720 5722 5722 5721 5720 5718 5722
5616 5615 5615 5615 5614 5611 5626 5619 5627 5628 5636 5635 5640 5640 5642 5640 5645 5655 5659 5664 5664 5672 5675 5678 5681 5685 5688 5693 5696 5700 5701 5702 5704 5704 5704 5706 5708 5710 5710 5711 5713 5713 5712 5712 5711 5711 5709 5709 5714
5606 5604 5602 5602 5601 5603 5611 5608 5617 5621 5626 5624 5629 5629 5630 5632 5636 5645 5647 5653 5655 5660 5664 5667 5671 5675 5679 5682 5686 5690 5692 5693 5695 5696 5697 5698 5701 5702 5703 5703 5704 5704 5705 5703 5701 5701 5698 5701 5705
5595 5596 5594 5590 5592 5596 5599 5595 5609 5609 5613 5616 5623 5617 5620 5626 5631 5637 5639 5644 5646 5649 5653 5657 5661 5664 5670 5672 5676 5680 5682 5684 5686 5688 5689 5691 5694 5694 5695 5695 5696 5696 5695 5694 5692 5690 5687 5693 5697
5584 5583 5584 5584 5585 5586 5588 5592 5596 5601 5604 5609 5611 5611 5612 5619 5624 5627 5631 5634 5636 5639 5643 5648 5650 5654 5659 5663 5667 5670 5672 5675 5677 5679 5681 5683 5687 5687 5687 5688 5689 5689 5687 5687 5684 5684 5679 5684 5689
5570 5575 5576 5575 5575 5578 5582 5585 5589 5596 5598 5601 5602 5604 5606 5613 5615 5619 5621 5622 5627 5629 5633 5637 5641 5644 5648 5653 5655 5660 5663 5665 5667 5670 5673 5675 5679 5680 5680 5681 5682 5682 5680 5678 5677 5676 5672 5676 5683
5560 5563 5566 5568 5571 5572 5576 5581 5585 5589 5591 5594 5593 5599 5599 5604 5609 5611 5611 5613 5615 5619 5622 5625 5631 5634 5638 5641 5645 5648 5652 5655 5658 5661 5663 5666 5670 5674 5674 5675 5675 5675 5673 5672 5672 5670 5669 5671 5675
5554 5556 5555 5559 5562 5563 5567 5574 5576 5581 5584 5580 5580 5588 5592 5597 5599 5601 5602 5604 5605 5609 5612 5616 5619 5623 5628 5631 5635 5638 5642 5646 5649 5652 5655 5658 5660 5665 5667 5669 5669 5669 5668 5666 5667 5666 5666 5667 5670